Year,Month,Day,Hour,Minute,Value (Times are PST for temperature in C)
2018,04,23,06,41,4.50
2018,04,23,06,42,4.50
2018,04,23,06,43,4.50
2018,04,23,06,44,4.50
2018,04,23,06,45,4.50
2018,04,23,06,46,4.60
2018,04,23,06,47,4.60
2018,04,23,06,48,4.60
2018,04,23,06,49,4.70
2018,04,23,06,50,4.70
2018,04,23,06,51,4.80
2018,04,23,06,52,4.80
2018,04,23,06,53,4.80
2018,04,23,06,54,4.90
2018,04,23,06,55,4.90
2018,04,23,06,56,5.00
2018,04,23,06,57,5.00
2018,04,23,06,58,5.10
2018,04,23,06,59,5.10
2018,04,23,07,00,5.10
2018,04,23,07,01,5.10
2018,04,23,07,02,5.10
2018,04,23,07,03,5.10
2018,04,23,07,04,5.10
2018,04,23,07,05,5.10
2018,04,23,07,06,5.10
2018,04,23,07,07,5.10
2018,04,23,07,08,5.10
2018,04,23,08,33,9.10
2018,04,23,08,34,9.10
2018,04,23,08,35,9.10
2018,04,23,08,36,9.10
2018,04,23,08,37,9.10
2018,04,23,08,38,9.20
2018,04,23,08,39,9.20
2018,04,23,08,40,9.20
2018,04,23,08,41,9.30
2018,04,23,08,42,9.30
2018,04,23,08,43,9.30
2018,04,23,08,44,9.30
2018,04,23,08,45,9.30
2018,04,23,08,46,9.30
2018,04,23,08,47,9.30
2018,04,23,08,48,9.30
2018,04,23,08,49,9.30
2018,04,23,08,50,9.30
2018,04,23,08,51,9.40
2018,04,23,08,52,9.50
2018,04,23,08,53,9.50
2018,04,23,08,54,9.60
2018,04,23,08,55,9.60
2018,04,23,08,56,9.70
2018,04,23,08,57,9.80
2018,04,23,08,58,9.90
2018,04,23,08,59,10.00
2018,04,23,09,00,10.10
2018,04,23,09,01,10.20
2018,04,23,09,02,10.20
2018,04,23,09,03,10.30
2018,04,23,09,04,10.40
2018,04,23,09,05,10.50
2018,04,23,09,06,10.60
2018,04,23,09,07,10.60
2018,04,23,09,08,10.70
2018,04,23,09,09,10.70
2018,04,23,09,10,10.70
2018,04,23,09,11,10.70
2018,04,23,09,12,10.80
2018,04,23,09,13,10.90
2018,04,23,09,14,10.90
2018,04,23,09,15,11.00
2018,04,23,09,16,11.10
2018,04,23,09,17,11.20
2018,04,23,09,18,11.20
2018,04,23,09,19,11.20
2018,04,23,09,20,11.20
2018,04,23,09,21,11.20
2018,04,23,09,22,11.20
2018,04,23,09,23,11.10
2018,04,23,09,24,11.00
2018,04,23,09,25,10.90
2018,04,23,09,26,10.80
2018,04,23,09,27,10.80
2018,04,23,09,28,10.80
2018,04,23,09,29,10.80
2018,04,23,09,30,10.80
2018,04,23,09,31,10.80
2018,04,23,09,32,10.80
2018,04,23,09,33,10.80
2018,04,23,09,34,10.90
2018,04,23,09,35,10.90
2018,04,23,09,36,10.90
2018,04,23,09,37,10.90
2018,04,23,09,38,10.90
2018,04,23,09,39,10.90
2018,04,23,09,40,10.90
2018,04,23,09,41,11.00
2018,04,23,09,42,11.00
2018,04,23,09,43,11.10
2018,04,23,09,44,11.10
2018,04,23,09,45,11.10
2018,04,23,09,46,11.20
2018,04,23,09,47,11.20
2018,04,23,09,48,11.10
2018,04,23,09,49,11.10
2018,04,23,09,50,11.10
2018,04,23,09,51,11.10
2018,04,23,09,52,11.10
2018,04,23,09,53,11.10
2018,04,23,09,54,11.00
2018,04,23,09,55,11.00
2018,04,23,09,56,11.10
2018,04,23,09,57,11.10
2018,04,23,09,58,11.10
2018,04,23,09,59,11.10
2018,04,23,10,00,11.10
2018,04,23,10,01,11.20
2018,04,23,10,02,11.20
2018,04,23,10,03,11.30
2018,04,23,10,04,11.20
2018,04,23,10,05,11.20
2018,04,23,10,06,11.20
2018,04,23,10,07,11.20
2018,04,23,10,08,11.20
2018,04,23,10,09,11.20
2018,04,23,10,10,11.30
2018,04,23,10,11,11.30
2018,04,23,10,12,11.20
2018,04,23,10,13,11.20
2018,04,23,10,14,11.20
2018,04,23,10,15,11.20
2018,04,23,10,16,11.20
2018,04,23,10,17,11.20
2018,04,23,10,18,11.10
2018,04,23,10,19,11.10
2018,04,23,10,20,11.10
2018,04,23,10,21,11.10
2018,04,23,10,22,11.20
2018,04,23,10,23,11.20
2018,04,23,10,24,11.20
2018,04,23,10,25,11.20
2018,04,23,10,26,11.30
2018,04,23,10,27,11.40
2018,04,23,10,28,11.50
2018,04,23,10,29,11.60
2018,04,23,10,30,11.70
2018,04,23,10,31,11.90
2018,04,23,10,32,12.00
2018,04,23,10,33,11.90
2018,04,23,10,34,11.90
2018,04,23,10,35,11.90
2018,04,23,10,36,11.90
2018,04,23,10,37,11.80
2018,04,23,10,38,11.80
2018,04,23,10,39,11.80
2018,04,23,10,40,11.90
2018,04,23,10,41,12.00
2018,04,23,10,42,12.20
2018,04,23,10,43,12.30
2018,04,23,10,44,12.40
2018,04,23,10,45,12.50
2018,04,23,10,46,12.50
2018,04,23,10,47,12.60
2018,04,23,10,48,12.60
2018,04,23,10,49,12.70
2018,04,23,10,50,12.70
2018,04,23,10,51,12.70
2018,04,23,10,52,12.60
2018,04,23,10,53,12.50
2018,04,23,10,54,12.40
2018,04,23,10,55,12.40
2018,04,23,10,56,12.40
2018,04,23,10,57,12.30
2018,04,23,10,58,12.20
2018,04,23,10,59,12.20
2018,04,23,11,00,12.30
2018,04,23,11,01,12.30
2018,04,23,11,02,12.30
2018,04,23,11,03,12.30
2018,04,23,11,04,12.30
2018,04,23,11,05,12.40
2018,04,23,11,06,12.50
2018,04,23,11,07,12.60
2018,04,23,11,08,12.60
2018,04,23,11,09,12.60
2018,04,23,11,10,12.70
2018,04,23,11,11,12.80
2018,04,23,11,12,12.90
2018,04,23,11,13,13.00
2018,04,23,11,14,13.10
2018,04,23,11,15,13.30
2018,04,23,11,16,13.40
2018,04,23,11,17,13.60
2018,04,23,11,18,13.60
2018,04,23,11,19,13.70
2018,04,23,11,20,13.70
2018,04,23,11,21,13.70
2018,04,23,11,22,13.70
2018,04,23,11,23,13.70
2018,04,23,11,24,13.80
2018,04,23,11,25,13.80
2018,04,23,11,26,13.80
2018,04,23,11,27,13.70
2018,04,23,11,28,13.60
2018,04,23,11,29,13.50
2018,04,23,11,30,13.50
2018,04,23,11,31,13.50
2018,04,23,11,32,13.50
2018,04,23,11,33,13.50
2018,04,23,11,34,13.40
2018,04,23,11,35,13.50
2018,04,23,11,36,13.50
2018,04,23,11,37,13.60
2018,04,23,11,38,13.70
2018,04,23,11,39,13.80
2018,04,23,11,40,13.70
2018,04,23,11,41,13.60
2018,04,23,11,42,13.50
2018,04,23,11,43,13.40
2018,04,23,11,44,13.30
2018,04,23,11,45,13.20
2018,04,23,11,46,13.30
2018,04,23,11,47,13.30
2018,04,23,11,48,13.30
2018,04,23,11,49,13.30
2018,04,23,11,50,13.40
2018,04,23,11,51,13.40
2018,04,23,11,52,13.30
2018,04,23,11,53,13.20
2018,04,23,11,54,13.20
2018,04,23,11,55,13.10
2018,04,23,11,56,13.10
2018,04,23,11,57,13.00
2018,04,23,11,58,13.10
2018,04,23,11,59,13.10
2018,04,23,12,00,13.20
2018,04,23,12,01,13.30
2018,04,23,12,02,13.40
2018,04,23,12,03,13.50
2018,04,23,12,04,13.50
2018,04,23,12,05,13.40
2018,04,23,12,06,13.40
2018,04,23,12,07,13.50
2018,04,23,12,08,13.60
2018,04,23,12,09,13.70
2018,04,23,12,10,13.70
2018,04,23,12,11,13.80
2018,04,23,12,12,13.80
2018,04,23,12,13,13.90
2018,04,23,12,14,13.90
2018,04,23,12,15,13.90
2018,04,23,12,16,13.90
2018,04,23,12,17,14.00
2018,04,23,12,18,14.00
2018,04,23,12,19,14.20
2018,04,23,12,20,14.30
2018,04,23,12,21,14.30
2018,04,23,12,22,14.40
2018,04,23,12,23,14.40
2018,04,23,12,24,14.60
2018,04,23,12,25,14.70
2018,04,23,12,26,14.70
2018,04,23,12,27,14.70
2018,04,23,12,28,14.80
2018,04,23,12,29,14.80
2018,04,23,12,30,14.70
2018,04,23,12,31,14.60
2018,04,23,12,32,14.50
2018,04,23,12,33,14.40
2018,04,23,12,34,14.40
2018,04,23,12,35,14.50
2018,04,23,12,36,14.70
2018,04,23,12,37,14.80
2018,04,23,12,38,14.80
2018,04,23,12,39,14.80
2018,04,23,12,40,14.80
2018,04,23,12,41,14.90
2018,04,23,12,42,14.90
2018,04,23,12,43,14.90
2018,04,23,12,44,14.90
2018,04,23,12,45,14.70
2018,04,23,12,46,14.60
2018,04,23,12,47,14.50
2018,04,23,12,48,14.40
2018,04,23,12,49,14.40
2018,04,23,12,50,14.50
2018,04,23,12,51,14.50
2018,04,23,12,52,14.40
2018,04,23,12,53,14.40
2018,04,23,12,54,14.30
2018,04,23,12,55,14.40
2018,04,23,12,56,14.50
2018,04,23,12,57,14.50
2018,04,23,12,58,14.60
2018,04,23,12,59,14.70
2018,04,23,13,00,14.70
2018,04,23,13,01,14.70
2018,04,23,13,02,14.60
2018,04,23,13,03,14.50
2018,04,23,13,04,14.50
2018,04,23,13,05,14.50
2018,04,23,13,06,14.50
2018,04,23,13,07,14.60
2018,04,23,13,08,14.70
2018,04,23,13,09,14.70
2018,04,23,13,10,14.70
2018,04,23,13,11,14.70
2018,04,23,13,12,14.70
2018,04,23,13,13,14.70
2018,04,23,13,14,14.90
2018,04,23,13,15,15.00
2018,04,23,13,16,15.00
2018,04,23,13,17,15.10
2018,04,23,13,18,15.00
2018,04,23,13,19,15.00
2018,04,23,13,20,14.90
2018,04,23,13,21,14.70
2018,04,23,13,22,14.60
2018,04,23,13,23,14.60
2018,04,23,13,24,14.60
2018,04,23,13,25,14.70
2018,04,23,13,26,14.80
2018,04,23,13,27,14.90
2018,04,23,13,28,14.90
2018,04,23,13,29,14.90
2018,04,23,13,30,14.90
2018,04,23,13,31,15.00
2018,04,23,13,32,15.00
2018,04,23,13,33,15.10
2018,04,23,13,34,15.20
2018,04,23,13,35,15.00
2018,04,23,13,36,14.90
2018,04,23,13,37,15.00
2018,04,23,13,38,15.10
2018,04,23,13,39,15.10
2018,04,23,13,40,15.10
2018,04,23,13,41,15.10
2018,04,23,13,42,15.00
2018,04,23,13,43,15.00
2018,04,23,13,44,15.10
2018,04,23,13,45,15.20
2018,04,23,13,46,15.30
2018,04,23,13,47,15.30
2018,04,23,13,48,15.30
2018,04,23,13,49,15.40
2018,04,23,13,50,15.30
2018,04,23,13,51,15.20
2018,04,23,13,52,15.20
2018,04,23,13,53,15.20
2018,04,23,13,54,15.30
2018,04,23,13,55,15.30
2018,04,23,13,56,15.30
2018,04,23,13,57,15.30
2018,04,23,13,58,15.40
2018,04,23,13,59,15.30
2018,04,23,14,00,15.20
2018,04,23,14,01,15.20
2018,04,23,14,02,15.30
2018,04,23,14,03,15.30
2018,04,23,14,04,15.40
2018,04,23,14,05,15.40
2018,04,23,14,06,15.50
2018,04,23,14,07,15.60
2018,04,23,14,08,15.60
2018,04,23,14,09,15.60
2018,04,23,14,10,15.60
2018,04,23,14,11,15.60
2018,04,23,14,12,15.60
2018,04,23,14,13,15.60
2018,04,23,14,14,15.60
2018,04,23,14,15,15.60
2018,04,23,14,16,15.60
2018,04,23,14,17,15.60
2018,04,23,14,18,15.60
2018,04,23,14,19,15.60
2018,04,23,14,20,15.60
2018,04,23,14,21,15.60
2018,04,23,14,22,15.60
2018,04,23,14,23,15.60
2018,04,23,14,24,15.60
2018,04,23,14,25,15.50
2018,04,23,14,26,15.50
2018,04,23,14,27,15.40
2018,04,23,14,28,15.40
2018,04,23,14,29,15.50
2018,04,23,14,30,15.70
2018,04,23,14,31,15.70
2018,04,23,14,32,15.70
2018,04,23,14,33,15.70
2018,04,23,14,34,15.70
2018,04,23,14,35,15.80
2018,04,23,14,36,15.90
2018,04,23,14,37,16.10
2018,04,23,14,38,16.20
2018,04,23,14,39,16.30
2018,04,23,14,40,16.40
2018,04,23,14,41,16.40
2018,04,23,14,42,16.40
2018,04,23,14,43,16.30
2018,04,23,14,44,16.30
2018,04,23,14,45,16.20
2018,04,23,14,46,16.20
2018,04,23,14,47,16.10
2018,04,23,14,48,16.00
2018,04,23,14,49,15.90
2018,04,23,14,50,15.90
2018,04,23,14,51,16.00
2018,04,23,14,52,16.00
2018,04,23,14,53,16.00
2018,04,23,14,54,15.90
2018,04,23,14,55,15.90
2018,04,23,14,56,16.00
2018,04,23,14,57,16.10
2018,04,23,14,58,16.20
2018,04,23,14,59,16.40
2018,04,23,15,00,16.40
2018,04,23,15,01,16.50
2018,04,23,15,02,16.50
2018,04,23,15,03,16.40
2018,04,23,15,04,16.40
2018,04,23,15,05,16.30
2018,04,23,15,06,16.30
2018,04,23,15,07,16.30
2018,04,23,15,08,16.40
2018,04,23,15,09,16.40
2018,04,23,15,10,16.40
2018,04,23,15,11,16.40
2018,04,23,15,12,16.30
2018,04,23,15,13,16.30
2018,04,23,15,14,16.20
2018,04,23,15,15,16.20
2018,04,23,15,16,16.30
2018,04,23,15,17,16.30
2018,04,23,15,18,16.50
2018,04,23,15,19,16.60
2018,04,23,15,20,16.50
2018,04,23,15,21,16.50
2018,04,23,15,22,16.60
2018,04,23,15,23,16.70
2018,04,23,15,24,16.80
2018,04,23,15,25,16.90
2018,04,23,15,26,17.00
2018,04,23,15,27,17.10
2018,04,23,15,28,17.10
2018,04,23,15,29,16.90
2018,04,23,15,30,16.80
2018,04,23,15,31,16.80
2018,04,23,15,32,16.80
2018,04,23,15,33,16.70
2018,04,23,15,34,16.60
2018,04,23,15,35,16.60
2018,04,23,15,36,16.60
2018,04,23,15,37,16.60
2018,04,23,15,38,16.50
2018,04,23,15,39,16.50
2018,04,23,15,40,16.50
2018,04,23,15,41,16.60
2018,04,23,15,42,16.70
2018,04,23,15,43,16.80
2018,04,23,15,44,16.70
2018,04,23,15,45,16.70
2018,04,23,15,46,16.70
2018,04,23,15,47,16.80
2018,04,23,15,48,16.90
2018,04,23,15,49,16.90
2018,04,23,15,50,16.90
2018,04,23,15,51,17.00
2018,04,23,15,52,16.90
2018,04,23,15,53,16.80
2018,04,23,15,54,16.80
2018,04,23,15,55,16.80
2018,04,23,15,56,16.80
2018,04,23,15,57,16.70
2018,04,23,15,58,16.70
2018,04,23,15,59,16.80
2018,04,23,16,00,16.70
2018,04,23,16,01,16.50
2018,04,23,16,02,16.50
2018,04,23,16,03,16.50
2018,04,23,16,04,16.50
2018,04,23,16,05,16.40
2018,04,23,16,06,16.50
2018,04,23,16,07,16.50
2018,04,23,16,08,16.60
2018,04,23,16,09,16.70
2018,04,23,16,10,16.80
2018,04,23,16,11,16.80
2018,04,23,16,12,16.80
2018,04,23,16,13,16.90
2018,04,23,16,14,16.90
2018,04,23,16,15,16.90
2018,04,23,16,16,16.90
2018,04,23,16,17,17.00
2018,04,23,16,18,17.00
2018,04,23,16,19,17.00
2018,04,23,16,20,17.00
2018,04,23,16,21,17.10
2018,04,23,16,22,17.10
2018,04,23,16,23,17.10
2018,04,23,16,24,17.10
2018,04,23,16,25,17.20
2018,04,23,16,26,17.30
2018,04,23,16,27,17.30
2018,04,23,16,28,17.30
2018,04,23,16,29,17.50
2018,04,23,16,30,17.50
2018,04,23,16,31,17.60
2018,04,23,16,32,17.70
2018,04,23,16,33,17.70
2018,04,23,16,34,17.60
2018,04,23,16,35,17.50
2018,04,23,16,36,17.40
2018,04,23,16,37,17.40
2018,04,23,16,38,17.30
2018,04,23,16,39,17.30
2018,04,23,16,40,17.40
2018,04,23,16,41,17.40
2018,04,23,16,42,17.40
2018,04,23,16,43,17.40
2018,04,23,16,44,17.50
2018,04,23,16,45,17.60
2018,04,23,16,46,17.70
2018,04,23,16,47,17.70
2018,04,23,16,48,17.70
2018,04,23,16,49,17.70
2018,04,23,16,50,17.60
2018,04,23,16,51,17.60
2018,04,23,16,52,17.60
2018,04,23,16,53,17.60
2018,04,23,16,54,17.60
2018,04,23,16,55,17.50
2018,04,23,16,56,17.50
2018,04,23,16,57,17.50
2018,04,23,16,58,17.40
2018,04,23,16,59,17.40
2018,04,23,17,00,17.30
2018,04,23,17,01,17.30
2018,04,23,17,02,17.30
2018,04,23,17,03,17.30
2018,04,23,17,04,17.20
2018,04,23,17,05,17.20
2018,04,23,17,06,17.30
2018,04,23,17,07,17.40
2018,04,23,17,08,17.50
2018,04,23,17,09,17.60
2018,04,23,17,10,17.80
2018,04,23,17,11,17.90
2018,04,23,17,12,17.90
2018,04,23,17,13,17.90
2018,04,23,17,14,17.80
2018,04,23,17,15,17.80
2018,04,23,17,16,17.80
2018,04,23,17,17,17.70
2018,04,23,17,18,17.50
2018,04,23,17,19,17.40
2018,04,23,17,20,17.30
2018,04,23,17,21,17.30
2018,04,23,17,22,17.30
2018,04,23,17,23,17.40
2018,04,23,17,24,17.40
2018,04,23,17,25,17.40
2018,04,23,17,26,17.40
2018,04,23,17,27,17.40
2018,04,23,17,28,17.50
2018,04,23,17,29,17.50
2018,04,23,17,30,17.50
2018,04,23,17,31,17.60
2018,04,23,17,32,17.50
2018,04,23,17,33,17.50
2018,04,23,17,34,17.50
2018,04,23,17,35,17.50
2018,04,23,17,36,17.60
2018,04,23,17,37,17.60
2018,04,23,17,38,17.70
2018,04,23,17,39,17.70
2018,04,23,17,40,17.80
2018,04,23,17,41,17.70
2018,04,23,17,42,17.70
2018,04,23,17,43,17.70
2018,04,23,17,44,17.70
2018,04,23,17,45,17.70
2018,04,23,17,46,17.70
2018,04,23,17,47,17.70
2018,04,23,17,48,17.70
2018,04,23,17,49,17.80
2018,04,23,17,50,17.80
2018,04,23,17,51,17.70
2018,04,23,17,52,17.70
2018,04,23,17,53,17.70
2018,04,23,17,54,17.70
2018,04,23,17,55,17.70
2018,04,23,17,56,17.70
2018,04,23,17,57,17.70
2018,04,23,17,58,17.70
2018,04,23,17,59,17.70
2018,04,23,18,00,17.80
2018,04,23,18,01,17.80
2018,04,23,18,02,17.80
2018,04,23,18,03,17.70
2018,04,23,18,04,17.70
2018,04,23,18,05,17.60
2018,04,23,18,06,17.50
2018,04,23,18,07,17.30
2018,04,23,18,08,17.20
2018,04,23,18,09,17.20
2018,04,23,18,10,17.20
2018,04,23,18,11,17.30
2018,04,23,18,12,17.30
2018,04,23,18,13,17.40
2018,04,23,18,14,17.40
2018,04,23,18,15,17.40
2018,04,23,18,16,17.40
2018,04,23,18,17,17.50
2018,04,23,18,18,17.50
2018,04,23,18,19,17.60
2018,04,23,18,20,17.60
2018,04,23,18,21,17.60
2018,04,23,18,22,17.60
2018,04,23,18,23,17.60
2018,04,23,18,24,17.60
2018,04,23,18,25,17.60
2018,04,23,18,26,17.50
2018,04,23,18,27,17.40
2018,04,23,18,28,17.20
2018,04,23,18,29,17.10
2018,04,23,18,30,16.90
2018,04,23,18,31,16.80
2018,04,23,18,32,16.70
2018,04,23,18,33,16.70
2018,04,23,18,34,16.60
2018,04,23,18,35,16.50
2018,04,23,18,36,16.50
2018,04,23,18,37,16.40
2018,04,23,18,38,16.40
2018,04,23,18,39,16.40
2018,04,23,18,40,16.30
2018,04,23,18,41,16.30
2018,04,23,18,42,16.30
2018,04,23,18,43,16.30
2018,04,23,18,44,16.30
2018,04,23,18,45,16.30
2018,04,23,18,46,16.30
2018,04,23,18,47,16.30
2018,04,23,18,48,16.30
2018,04,23,18,49,16.20
2018,04,23,18,50,16.20
2018,04,23,18,51,16.20
2018,04,23,18,52,16.10
2018,04,23,18,53,16.10
2018,04,23,18,54,16.00
2018,04,23,18,55,16.00
2018,04,23,18,56,16.00
2018,04,23,18,57,16.00
2018,04,23,18,58,16.00
2018,04,23,18,59,16.10
2018,04,23,19,00,16.20
2018,04,23,19,01,16.20
2018,04,23,19,02,16.20
2018,04,23,19,03,16.20
2018,04,23,19,04,16.30
2018,04,23,19,05,16.30
2018,04,23,19,06,16.40
2018,04,23,19,07,16.50
2018,04,23,19,08,16.60
2018,04,23,19,09,16.60
2018,04,23,19,10,16.60
2018,04,23,19,11,16.60
2018,04,23,19,12,16.60
2018,04,23,19,13,16.50
2018,04,23,19,14,16.50
2018,04,23,19,15,16.40
2018,04,23,19,16,16.40
2018,04,23,19,17,16.30
2018,04,23,19,18,16.30
2018,04,23,19,19,16.30
2018,04,23,19,20,16.30
2018,04,23,19,21,16.30
2018,04,23,19,22,16.30
2018,04,23,19,23,16.40
2018,04,23,19,24,16.30
2018,04,23,19,25,16.30
2018,04,23,19,26,16.30
2018,04,23,19,27,16.30
2018,04,23,19,28,16.30
2018,04,23,19,29,16.30
2018,04,23,19,30,16.20
2018,04,23,19,31,16.20
2018,04,23,19,32,16.20
2018,04,23,19,33,16.10
2018,04,23,19,34,16.00
2018,04,23,19,35,15.90
2018,04,23,19,36,15.90
2018,04,23,19,37,15.80
2018,04,23,19,38,15.70
2018,04,23,19,39,15.70
2018,04,23,19,40,15.60
2018,04,23,19,41,15.60
2018,04,23,19,42,15.50
2018,04,23,19,43,15.40
2018,04,23,19,44,15.30
2018,04,23,19,45,15.20
2018,04,23,19,46,15.00
2018,04,23,19,47,14.90
2018,04,23,19,48,14.80
2018,04,23,19,49,14.60
2018,04,23,19,50,14.50
2018,04,23,19,51,14.40
2018,04,23,19,52,14.30
2018,04,23,19,53,14.20
2018,04,23,19,54,14.10
2018,04,23,19,55,14.00
2018,04,23,19,56,13.80
2018,04,23,19,57,13.70
2018,04,23,19,58,13.60
2018,04,23,19,59,13.50
2018,04,23,20,00,13.40
2018,04,23,20,01,13.30
2018,04,23,20,02,13.20
2018,04,23,20,03,13.10
2018,04,23,20,04,13.00
2018,04,23,20,05,13.00
2018,04,23,20,06,12.90
2018,04,23,20,07,12.90
2018,04,23,20,08,12.80
2018,04,23,20,09,12.80
2018,04,23,20,10,12.70
2018,04,23,20,11,12.70
2018,04,23,20,12,12.60
2018,04,23,20,13,12.50
2018,04,23,20,14,12.40
2018,04,23,20,15,12.30
2018,04,23,20,16,12.20
2018,04,23,20,17,12.10
2018,04,23,20,18,12.00
2018,04,23,20,19,11.90
2018,04,23,20,20,11.80
2018,04,23,20,21,11.70
2018,04,23,20,22,11.60
2018,04,23,20,23,11.60
2018,04,23,20,24,11.50
2018,04,23,20,25,11.50
2018,04,23,20,26,11.40
2018,04,23,20,27,11.40
2018,04,23,20,28,11.40
2018,04,23,20,29,11.40
2018,04,23,20,30,11.40
2018,04,23,20,31,11.30
2018,04,23,20,32,11.30
2018,04,23,20,33,11.30
2018,04,23,20,34,11.30
2018,04,23,20,35,11.20
2018,04,23,20,36,11.20
2018,04,23,20,37,11.20
2018,04,23,20,38,11.20
2018,04,23,20,39,11.20
2018,04,23,20,40,11.10
2018,04,23,20,41,11.10
2018,04,23,20,42,11.00
2018,04,23,20,43,10.90
2018,04,23,20,44,10.90
2018,04,23,20,45,10.80
2018,04,23,20,46,10.80
2018,04,23,20,47,10.80
2018,04,23,20,48,10.80
2018,04,23,20,49,10.80
2018,04,23,20,50,10.80
2018,04,23,20,51,10.80
2018,04,23,20,52,10.80
2018,04,23,20,53,10.80
2018,04,23,20,54,10.80
2018,04,23,20,55,10.80
